When you browse on this site, cookies collect data to enhance your experience and personalize the content and advertising you see.
Visit our Privacy Policy to learn more. By continuing to use the site, you agree to this use of cookies and data.

Stündliche Wetter Dorogonka

Heute, 3 Juli, Freitag

Zeit Temperatur Niederschläge Wind Luftdruck Luftfeuchtigkeit
00:00 +19°C° 0 mm 3 m/S 741 mmHg 95%
01:00 +19°C° 0 mm 3 m/S 742 mmHg 95%
02:00 +18°C° 0 mm 3 m/S 742 mmHg 96%
03:00 +19°C° 0 mm 3 m/S 742 mmHg 96%
04:00 +19°C° 0 mm 3 m/S 742 mmHg 95%
05:00 +19°C° 0 mm 3 m/S 742 mmHg 95%
06:00 +21°C° 0.1 mm 3 m/S 742 mmHg 92%
07:00 +22°C° 0.1 mm 3 m/S 742 mmHg 88%
08:00 +25°C° 0 mm 3 m/S 743 mmHg 84%
09:00 +26°C° 0.9 mm 3 m/S 743 mmHg 81%
10:00 +26°C° 0.9 mm 3 m/S 743 mmHg 78%
11:00 +27°C° 0.9 mm 4 m/S 743 mmHg 75%
12:00 +27°C° 1.3 mm 4 m/S 743 mmHg 75%
13:00 +27°C° 1.3 mm 3 m/S 743 mmHg 74%
14:00 +28°C° 0 mm 2 m/S 743 mmHg 73%
15:00 +28°C° 1.2 mm 2 m/S 743 mmHg 76%
16:00 +27°C° 1.2 mm 2 m/S 743 mmHg 78%
17:00 +27°C° 1.2 mm 2 m/S 743 mmHg 80%
18:00 +26°C° 0.4 mm 2 m/S 743 mmHg 84%
19:00 +24°C° 0.4 mm 2 m/S 743 mmHg 87%
20:00 +23°C° 0.4 mm 2 m/S 743 mmHg 90%
21:00 +21°C° 0 mm 2 m/S 743 mmHg 91%
22:00 +21°C° 0 mm 2 m/S 742 mmHg 91%
23:00 +20°C° 0 mm 2 m/S 742 mmHg 92%

Morgen, 4 Juli, Samstag

Zeit Temperatur Niederschläge Wind Luftdruck Luftfeuchtigkeit
00:00 +20°C° 0 mm 2 m/S 742 mmHg 92%
01:00 +19°C° 0 mm 2 m/S 742 mmHg 93%
02:00 +19°C° 0 mm 2 m/S 742 mmHg 93%
03:00 +19°C° 0 mm 2 m/S 742 mmHg 92%
04:00 +19°C° 0 mm 3 m/S 742 mmHg 92%
05:00 +19°C° 0 mm 3 m/S 742 mmHg 92%
06:00 +21°C° 0 mm 3 m/S 742 mmHg 88%
07:00 +24°C° 0 mm 3 m/S 742 mmHg 84%
08:00 +25°C° 0 mm 3 m/S 742 mmHg 80%
09:00 +26°C° 0.2 mm 3 m/S 742 mmHg 76%
10:00 +27°C° 0.2 mm 3 m/S 742 mmHg 72%
11:00 +28°C° 0.2 mm 4 m/S 742 mmHg 68%
12:00 +28°C° 0.3 mm 3 m/S 742 mmHg 68%
13:00 +28°C° 0.3 mm 3 m/S 742 mmHg 69%
14:00 +28°C° 0.3 mm 3 m/S 742 mmHg 69%
15:00 +28°C° 0.3 mm 3 m/S 742 mmHg 73%
16:00 +27°C° 0.3 mm 2 m/S 742 mmHg 78%
17:00 +26°C° 0.3 mm 2 m/S 741 mmHg 82%
18:00 +25°C° 0.4 mm 2 m/S 742 mmHg 83%
19:00 +24°C° 0.4 mm 1 m/S 742 mmHg 85%
20:00 +23°C° 0.4 mm 1 m/S 742 mmHg 86%
21:00 +22°C° 0 mm 1 m/S 742 mmHg 88%
22:00 +22°C° 0 mm 1 m/S 742 mmHg 89%
23:00 +21°C° 0 mm 1 m/S 742 mmHg 91%

übermorgen, 5 Juli, Sonntag

Zeit Temperatur Niederschläge Wind Luftdruck Luftfeuchtigkeit
00:00 +21°C° 0.3 mm 1 m/S 742 mmHg 92%
01:00 +21°C° 0.3 mm 1 m/S 742 mmHg 93%
02:00 +21°C° 0.3 mm 1 m/S 742 mmHg 94%
03:00 +21°C° 0.6 mm 1 m/S 742 mmHg 95%
04:00 +21°C° 0.6 mm 1 m/S 742 mmHg 95%
05:00 +21°C° 0.6 mm 1 m/S 742 mmHg 96%
06:00 +21°C° 0.3 mm 1 m/S 742 mmHg 93%
07:00 +22°C° 0.3 mm 1 m/S 742 mmHg 90%
08:00 +23°C° 0.3 mm 1 m/S 742 mmHg 87%
09:00 +24°C° 0.6 mm 1 m/S 742 mmHg 84%
10:00 +25°C° 0.6 mm 1 m/S 742 mmHg 81%
11:00 +26°C° 0.6 mm 1 m/S 742 mmHg 78%
12:00 +25°C° 1 mm 1 m/S 742 mmHg 78%
13:00 +25°C° 1 mm 2 m/S 741 mmHg 79%
14:00 +25°C° 1 mm 2 m/S 741 mmHg 80%
15:00 +25°C° 0.4 mm 2 m/S 741 mmHg 82%
16:00 +24°C° 0.4 mm 2 m/S 741 mmHg 83%
17:00 +24°C° 0.4 mm 2 m/S 741 mmHg 85%
18:00 +23°C° 0 mm 2 m/S 741 mmHg 88%
19:00 +21°C° 0 mm 2 m/S 741 mmHg 90%
20:00 +20°C° 0 mm 2 m/S 741 mmHg 92%
21:00 +20°C° 0 mm 2 m/S 741 mmHg 93%
22:00 +19°C° 0 mm 2 m/S 741 mmHg 93%
23:00 +19°C° 0 mm 2 m/S 741 mmHg 93%

6 Juli, Montag

Zeit Temperatur Niederschläge Wind Luftdruck Luftfeuchtigkeit
00:00 +19°C° 0 mm 1 m/S 741 mmHg 93%
01:00 +19°C° 0 mm 1 m/S 741 mmHg 92%
02:00 +19°C° 0 mm 1 m/S 741 mmHg 92%
03:00 +19°C° 0 mm 1 m/S 741 mmHg 91%
04:00 +20°C° 0 mm 1 m/S 741 mmHg 91%
05:00 +20°C° 0 mm 1 m/S 741 mmHg 90%
06:00 +21°C° 0 mm 1 m/S 741 mmHg 86%
07:00 +23°C° 0 mm 1 m/S 742 mmHg 81%
08:00 +24°C° 0 mm 1 m/S 742 mmHg 77%
09:00 +25°C° 0 mm 1 m/S 742 mmHg 73%
10:00 +26°C° 0 mm 2 m/S 742 mmHg 69%
11:00 +27°C° 0 mm 2 m/S 742 mmHg 65%
12:00 +27°C° 0 mm 2 m/S 741 mmHg 64%
13:00 +28°C° 0 mm 2 m/S 741 mmHg 63%
14:00 +28°C° 0 mm 2 m/S 741 mmHg 62%
15:00 +28°C° 0 mm 2 m/S 741 mmHg 65%
16:00 +28°C° 0 mm 2 m/S 740 mmHg 68%
17:00 +28°C° 0 mm 2 m/S 740 mmHg 70%
18:00 +26°C° 0 mm 2 m/S 740 mmHg 75%
19:00 +25°C° 0 mm 2 m/S 740 mmHg 79%
20:00 +23°C° 0 mm 1 m/S 740 mmHg 84%
21:00 +23°C° 0 mm 1 m/S 740 mmHg 85%
22:00 +22°C° 0 mm 1 m/S 740 mmHg 87%
23:00 +22°C° 0 mm 1 m/S 740 mmHg 89%

7 Juli, Dienstag

Zeit Temperatur Niederschläge Wind Luftdruck Luftfeuchtigkeit
00:00 +21°C° 0.2 mm 1 m/S 740 mmHg 90%
01:00 +21°C° 0.2 mm 1 m/S 740 mmHg 91%
02:00 +20°C° 0.2 mm 2 m/S 739 mmHg 92%
03:00 +20°C° 0.1 mm 2 m/S 739 mmHg 92%
04:00 +20°C° 0.1 mm 2 m/S 739 mmHg 91%
05:00 +20°C° 0.1 mm 2 m/S 739 mmHg 91%
06:00 +23°C° 0 mm 2 m/S 739 mmHg 86%
07:00 +24°C° 0 mm 2 m/S 739 mmHg 81%
08:00 +26°C° 0 mm 2 m/S 739 mmHg 77%
09:00 +27°C° 0 mm 2 m/S 739 mmHg 72%
10:00 +28°C° 0 mm 2 m/S 738 mmHg 67%
11:00 +29°C° 0 mm 2 m/S 738 mmHg 63%
12:00 +30°C° 0 mm 2 m/S 738 mmHg 61%
13:00 +30°C° 0 mm 2 m/S 738 mmHg 60%
14:00 +31°C° 0 mm 2 m/S 738 mmHg 59%
15:00 +30°C° 0.6 mm 2 m/S 738 mmHg 65%
16:00 +29°C° 0.6 mm 2 m/S 738 mmHg 72%
17:00 +28°C° 0.6 mm 2 m/S 738 mmHg 78%
18:00 +26°C° 0.4 mm 1 m/S 738 mmHg 81%
19:00 +25°C° 0.4 mm 1 m/S 738 mmHg 83%
20:00 +24°C° 0.4 mm 1 m/S 738 mmHg 85%
21:00 +23°C° 0.5 mm 2 m/S 738 mmHg 88%
22:00 +21°C° 0.5 mm 2 m/S 738 mmHg 92%
23:00 +20°C° 0.5 mm 3 m/S 738 mmHg 95%

8 Juli, Mittwoch

Zeit Temperatur Niederschläge Wind Luftdruck Luftfeuchtigkeit
00:00 +20°C° 1.4 mm 3 m/S 738 mmHg 96%
01:00 +20°C° 1.4 mm 4 m/S 738 mmHg 96%
02:00 +19°C° 1.4 mm 4 m/S 738 mmHg 97%
03:00 +19°C° 0.8 mm 4 m/S 738 mmHg 97%
04:00 +18°C° 0.8 mm 4 m/S 738 mmHg 96%
05:00 +18°C° 0.8 mm 4 m/S 738 mmHg 96%
06:00 +18°C° 0.2 mm 4 m/S 738 mmHg 94%
07:00 +19°C° 0.2 mm 4 m/S 738 mmHg 92%
08:00 +19°C° 0.2 mm 4 m/S 738 mmHg 90%
09:00 +20°C° 0 mm 4 m/S 738 mmHg 86%
10:00 +21°C° 0 mm 4 m/S 739 mmHg 81%
11:00 +21°C° 0 mm 5 m/S 739 mmHg 77%
12:00 +22°C° 0 mm 4 m/S 739 mmHg 74%
13:00 +23°C° 0 mm 4 m/S 740 mmHg 71%
14:00 +23°C° 0 mm 4 m/S 740 mmHg 68%
15:00 +23°C° 0 mm 4 m/S 740 mmHg 70%
16:00 +24°C° 0 mm 3 m/S 740 mmHg 72%
17:00 +24°C° 0 mm 3 m/S 740 mmHg 74%
18:00 +21°C° 0 mm 3 m/S 740 mmHg 75%
19:00 +20°C° 0 mm 3 m/S 740 mmHg 77%
20:00 +18°C° 0 mm 3 m/S 741 mmHg 78%
21:00 +18°C° 0 mm 4 m/S 741 mmHg 77%
22:00 +17°C° 0 mm 4 m/S 741 mmHg 75%
23:00 +15°C° 0 mm 4 m/S 741 mmHg 73%
Mehr zeigen